Weather in Ekonda

Russia / Krasnoyarsk Krai     65°45′15″N   105°19′41″E
temp.,
°C
wind,
m/s
gust,
m/s
humid.,
%
clouds,
%
prec.,
mm/h
press.,
hPa
HPBL,
m
12 august, fri
fri1201:00+8n71292100 10.7 1010405
04:00+7nne81393100 4.2 1011484
07:00+7nne91292100 8.6 10121011
10:00+7nne101389100 3.7 1013949
13:00+6nne101390100 6.1 1013945
16:00+6nne91290100 2.9 1014871
19:00+5nne91392100 5.4 1014805
22:00+6ne91390100 0.8 1013833
13 august, sat
sat1301:00+5ne91392100 2.8 1013744
04:00+5ne101592100 3.3 1012575
07:00+5ne91490100 6.0 1012544
10:00+5ne81389100 1.5 1012519
13:00+6ene71188100 1.8 1012511
16:00+6ene6989100 0.1 1012385
19:00+5ene4790100 0.1 1012279
22:00+5ene3596100 1.8 1012209
14 august, sun
sun1401:00+5ne3594100 2.3 1011202
04:00+5ene3590100 0.1 1010152
07:00+5ne3591100 0.2 1010213
10:00+7e3486100 0.0 1010352
13:00+9e3379100 0.0 1009557
16:00+8ese1283100 0.0 1009177
19:00+9ne2284100 0.0 100850
22:00+7ene4594100 0.9 1007167
15 august, mon
mon1501:00+7ene4595100 3.6 1006180
04:00+7ne3691100 0.1 1005193
07:00+7ne5993100 2.3 1004400
10:00+7nne4889100 3.1 1003939
13:00+7n6885100 5.2 1002943
16:00+6n3589100 0.4 1000424
19:00+6wnw1192100 0.5 100043
22:00+6se2394100 0.1 999107
16 august, tue
tue1601:00+6ese3389100 0.4 99988
04:00+6ese349083 0.1 999127
07:00+6e349198 0.1 1000247
10:00+10e5675100 0.0 999951
13:00+11ene4670100 0.2 998947
16:00+8nne61292100 2.6 997492
19:00+10ene71194100 6.3 995344
22:00+9e61094100 0.1 995281